BEIDOU-3 M18 (C37)

Last updated on Aug. 7, 2020, 5:36 a.m. UTC

1 43707U 18093B   20219.38817433  .00000011  00000-0  00000-0 0  9995
2 43707  54.6238 255.2453 0009850 279.2582 106.6060  1.86232082 11669
UTC
Height (km)
Latitude
Longitude
Inclination
Orbital Period
UTC large
Height (km)
Speed (km/s)
/
Latitude / Longitude
Inclination (degrees)
Orbital Period (minutes)
Azimuth
Elevation
Range (km)
Doppler Factor
iOS Compass Heading
iOS Angle

Next 30 passes for location: Hong Kong

Rise time Rise Azimuth (degrees) Set time Set Azimuth (degrees) Duration Max altitude (degrees)

No matching passes for this satellites